SCOUT X-4 R/B, 721

Orbit data source: Space-Track

SCOUT X-4 R/B, 721 is space debris in LEO originally from a launch on Thu, 19 Dec 1963 UTC launched from the Air Force Western Test Range (AFWTR). Debris objects in space refer to the collection of defunct objects orbiting the Earth. Examples of debris include non-operational satellites, rocket bodies, and fragments generated from explosions, collisions, or faulty payload assembly.

Loading next visibility...
Identifier
721, 1963-053B
Orbit
LEO
Country
Flag of USUS
Related business
Manufacturer
ABL
Mission
Spacecraft
Bus & Motor
ALTAIR, Unknown motor
Mass
68 kg wet, 33 kg dry
Launch date (UTC)
1963-12-19 (63 years ago)
Launch vehicle
Unknown
Launch site
Air Force Western Test Range (AFWTR)
Object type
Payload
Rocket body
Debris
Shape & HBR
CYL, 0.8 m
Radar Cross Section
Medium (>0.1 m² and <1 m²)

Expand to show TLE details & history
Last TLE update: 8 hours ago

TLE from 8 hours ago
0 SCOUT X-4 R/B
1   721U 63053B   26253.61414728  .00000150  00000-0  90347-4 0  9991
2   721  78.6040  26.5412 1087964 234.5949 114.8754 12.55149080860771
Epoch: 2026-09-10T14:44Z
TLE epoch observation values (Epoch: 2026-09-10T14:44:22.324Z)
Latitude
-0.00004°
Longitude
175.79885°
Altitude
1,874.475 km
Speed
6.758 km/s
True Right ascension
01h 46m 09s
True Declination
0° 00' 00"
Sunlit
Object was in full shadow at epoch
Visualization orbit readout
Latitude
Unknown
Longitude
Unknown
Altitude
Unknown
Speed
Unknown
Apparent Right ascension
Unknown
Apparent Declination
Unknown
Sunlit
N/A
Visualization observer readout
Local Sidereal Time
15:02:53
Azimuth
Unknown
Elevation
Unknown
Doppler factor
Unknown
Orbital elements
Apogee altitude
2,291.146 km
Perigee altitude
589.866 km
Semi-major axis
7,818.643 km
Eccentricity
0.1088
Inclination
78.604°
RAAN
26.5412°
Arg. of periapsis
234.5949°
True anomaly
125.51175°
Mean anomaly
114.8754°
Eccentric anomaly
120.25965°
Mean motion
3.1394 °/min
Orbital period
114.67 mins
BSTAR
0.000090347
Loading maneuver chart data...
Computing Atmospheric mass density...
Loading historical data...
Loading historical data...
Loading historical data...
Loading historical data...
Loading historical data...
Loading historical data...
Loading historical data...

Documentation

Showing up to 5 results
|